| time (UTC) | temp F | wind direction | speed MPH | gust MPH | rain 1hr in | rain 24hr in | rain mn in | humidity % | barometer mb |
| 20260507171050 | 70 | 258 | 1.0 | 4.0 | 0.00 | 0.00 | 0.00 | 71 | 1015.9 |
| 20260507170551 | 70 | 232 | 0.0 | 3.0 | 0.00 | 0.00 | 0.00 | 72 | 1016.0 |
| 20260507170056 | 68 | 258 | 1.0 | 4.0 | 0.00 | 0.00 | 0.00 | 75 | 1015.9 |
| 20260507170051 | 69 | 288 | 1.0 | 4.0 | 0.00 | 0.00 | 0.00 | 74 | 1016.0 |
| 20260507165550 | 68 | 261 | 1.0 | 4.0 | 0.00 | 0.00 | 0.00 | 74 | 1016.0 |
| 20260507164550 | 68 | 241 | 1.0 | 4.0 | 0.00 | 0.00 | 0.00 | 75 | 1016.0 |
| 20260507164049 | 67 | 238 | 1.0 | 3.0 | 0.00 | 0.00 | 0.00 | 77 | 1016.0 |
| 20260507163551 | 66 | 256 | 1.0 | 3.0 | 0.00 | 0.00 | 0.00 | 79 | 1016.1 |
| 20260507163050 | 66 | 257 | 1.0 | 3.0 | 0.00 | 0.00 | 0.00 | 81 | 1016.2 |
| 20260507162550 | 65 | 254 | 1.0 | 3.0 | 0.00 | 0.00 | 0.00 | 82 | 1016.3 |
| 20260507162050 | 64 | 253 | 1.0 | 4.0 | 0.00 | 0.00 | 0.00 | 83 | 1016.2 |
| 20260507161549 | 63 | 265 | 0.0 | 4.0 | 0.00 | 0.00 | 0.00 | 84 | 1016.3 |
| 20260507161052 | 63 | 212 | 0.0 | 0.0 | 0.00 | 0.00 | 0.00 | 85 | 1016.4 |
| 20260507160550 | 62 | 209 | 0.0 | 2.0 | 0.00 | 0.00 | 0.00 | 87 | 1016.4 |
| 20260507160051 | 61 | 209 | 0.0 | 2.0 | 0.00 | 0.00 | 0.00 | 89 | 1016.5 |
| 20260507155549 | 60 | 275 | 0.0 | 1.0 | 0.00 | 0.00 | 0.00 | 90 | 1016.4 |
| 20260507155050 | 59 | 325 | 0.0 | 0.0 | 0.00 | 0.00 | 0.00 | 91 | 1016.4 |
| 20260507154549 | 59 | 325 | 0.0 | 2.0 | 0.00 | 0.00 | 0.00 | 91 | 1016.4 |
| 20260507154049 | 58 | 325 | 0.0 | 2.0 | 0.00 | 0.00 | 0.00 | 91 | 1016.4 |
| 20260507153550 | 58 | 326 | 0.0 | 1.0 | 0.00 | 0.00 | 0.00 | 91 | 1016.4 |
| 20260507153051 | 58 | 325 | 0.0 | 1.0 | 0.00 | 0.00 | 0.00 | 91 | 1016.4 |
| 20260507152551 | 58 | 324 | 0.0 | 2.0 | 0.00 | 0.00 | 0.00 | 92 | 1016.4 |
| 20260507152049 | 58 | 324 | 0.0 | 2.0 | 0.00 | 0.00 | 0.00 | 92 | 1016.5 |
| 20260507151551 | 58 | 29 | 0.0 | 0.0 | 0.00 | 0.00 | 0.00 | 92 | 1016.4 |
| 20260507151046 | 58 | 51 | 0.0 | 0.0 | 0.00 | 0.00 | 0.00 | 92 | 1016.3 |
| 20260507150548 | 58 | 56 | 0.0 | 0.0 | 0.00 | 0.00 | 0.00 | 92 | 1016.3 |
| 20260507150046 | 57 | 56 | 0.0 | 0.0 | 0.00 | 0.00 | 0.00 | 92 | 1016.3 |
| 20260507145550 | 57 | 60 | 0.0 | 0.0 | 0.00 | 0.00 | 0.00 | 92 | 1016.2 |
| 20260507145546 | 57 | 60 | 0.0 | 0.0 | 0.00 | 0.00 | 0.00 | 92 | 1016.3 |
| 20260507144550 | 57 | 116 | 0.0 | 0.0 | 0.00 | 0.00 | 0.00 | 92 | 1016.4 |
| 20260507144545 | 57 | 59 | 0.0 | 0.0 | 0.00 | 0.00 | 0.00 | 92 | 1016.4 |
| 20260507144203 | 57 | 116 | 0.0 | 0.0 | 0.00 | 0.00 | 0.00 | 92 | 1016.3 |
| 20260507143045 | 57 | 116 | 0.0 | 0.0 | 0.00 | 0.00 | 0.00 | 92 | 1016.1 |
| 20260507142551 | 56 | 116 | 0.0 | 0.0 | 0.00 | 0.00 | 0.00 | 92 | 1016.1 |
| 20260507142546 | 56 | 116 | 0.0 | 0.0 | 0.00 | 0.00 | 0.00 | 92 | 1016.1 |
| 20260507142203 | 56 | 116 | 0.0 | 0.0 | 0.00 | 0.00 | 0.00 | 92 | 1016.1 |
| 20260507141043 | 56 | 116 | 0.0 | 0.0 | 0.00 | 0.00 | 0.00 | 92 | 1016.2 |
| 20260507140543 | 56 | 116 | 0.0 | 0.0 | 0.00 | 0.00 | 0.00 | 92 | 1016.2 |
| 20260507140043 | 56 | 116 | 0.0 | 0.0 | 0.00 | 0.00 | 0.00 | 92 | 1016.0 |
| 20260507135543 | 56 | 116 | 0.0 | 1.0 | 0.00 | 0.00 | 0.00 | 92 | 1016.1 |
| 20260507135044 | 55 | 118 | 0.0 | 1.0 | 0.00 | 0.00 | 0.00 | 92 | 1016.0 |
| 20260507134544 | 55 | 92 | 0.0 | 1.0 | 0.00 | 0.00 | 0.00 | 92 | 1016.0 |
| 20260507134049 | 55 | 91 | 0.0 | 1.0 | 0.00 | 0.00 | 0.00 | 92 | 1016.0 |
| 20260507134044 | 55 | 92 | 0.0 | 1.0 | 0.00 | 0.00 | 0.00 | 92 | 1016.1 |
| 20260507133043 | 55 | 47 | 0.0 | 1.0 | 0.00 | 0.00 | 0.00 | 92 | 1016.1 |
| 20260507132542 | 55 | 45 | 0.0 | 0.0 | 0.00 | 0.00 | 0.00 | 92 | 1016.2 |
| 20260507132043 | 55 | 45 | 0.0 | 0.0 | 0.00 | 0.00 | 0.00 | 92 | 1016.1 |
| 20260507131542 | 55 | 45 | 0.0 | 0.0 | 0.00 | 0.00 | 0.00 | 92 | 1016.0 |
| 20260507131048 | 54 | 45 | 0.0 | 0.0 | 0.00 | 0.00 | 0.00 | 92 | 1016.0 |
| 20260507131042 | 55 | 45 | 0.0 | 0.0 | 0.00 | 0.00 | 0.00 | 92 | 1016.1 |
| 20260507130042 | 55 | 45 | 0.0 | 0.0 | 0.00 | 0.00 | 0.00 | 92 | 1015.9 |
| 20260507125541 | 55 | 45 | 0.0 | 0.0 | 0.00 | 0.00 | 0.00 | 92 | 1016.0 |
| 20260507125040 | 54 | 45 | 0.0 | 0.0 | 0.00 | 0.00 | 0.00 | 92 | 1015.8 |
| 20260507124547 | 54 | 45 | 0.0 | 0.0 | 0.00 | 0.00 | 0.00 | 92 | 1015.5 |
| 20260507124541 | 54 | 45 | 0.0 | 0.0 | 0.00 | 0.00 | 0.00 | 92 | 1015.8 |
| 20260507124041 | 54 | 45 | 0.0 | 0.0 | 0.00 | 0.00 | 0.00 | 92 | 1015.7 |
| 20260507123041 | 54 | 45 | 0.0 | 0.0 | 0.00 | 0.00 | 0.00 | 92 | 1015.6 |
| 20260507122548 | 54 | 45 | 0.0 | 0.0 | 0.00 | 0.00 | 0.00 | 92 | 1015.6 |
| 20260507122543 | 54 | 45 | 0.0 | 0.0 | 0.00 | 0.00 | 0.00 | 92 | 1015.6 |
| 20260507121541 | 54 | 45 | 0.0 | 0.0 | 0.00 | 0.00 | 0.00 | 92 | 1015.7 |
| 20260507121039 | 54 | 45 | 0.0 | 0.0 | 0.00 | 0.00 | 0.00 | 92 | 1015.7 |
| 20260507120545 | 54 | 45 | 0.0 | 0.0 | 0.00 | 0.00 | 0.00 | 92 | 1015.6 |
| 20260507120539 | 54 | 45 | 0.0 | 0.0 | 0.00 | 0.00 | 0.00 | 91 | 1015.6 |
| 20260507115539 | 54 | 45 | 0.0 | 0.0 | 0.00 | 0.00 | 0.00 | 91 | 1015.6 |
| 20260507115039 | 54 | 45 | 0.0 | 0.0 | 0.00 | 0.00 | 0.00 | 92 | 1015.7 |
| 20260507114539 | 54 | 45 | 0.0 | 0.0 | 0.00 | 0.00 | 0.00 | 92 | 1015.7 |
| 20260507114039 | 54 | 45 | 0.0 | 0.0 | 0.00 | 0.00 | 0.00 | 92 | 1015.7 |
| 20260507113541 | 54 | 45 | 0.0 | 0.0 | 0.00 | 0.00 | 0.00 | 92 | 1015.5 |
| 20260507113039 | 54 | 45 | 0.0 | 0.0 | 0.00 | 0.00 | 0.00 | 92 | 1015.7 |
| 20260507112538 | 54 | 45 | 0.0 | 0.0 | 0.00 | 0.00 | 0.00 | 92 | 1015.7 |
| 20260507112038 | 54 | 45 | 0.0 | 0.0 | 0.00 | 0.00 | 0.00 | 92 | 1015.6 |
| 20260507111538 | 54 | 45 | 0.0 | 0.0 | 0.00 | 0.00 | 0.00 | 92 | 1015.7 |
| 20260507111038 | 54 | 45 | 0.0 | 0.0 | 0.00 | 0.00 | 0.00 | 92 | 1015.8 |
| 20260507110536 | 54 | 45 | 0.0 | 0.0 | 0.00 | 0.00 | 0.00 | 91 | 1015.7 |
| 20260507110038 | 54 | 45 | 0.0 | 0.0 | 0.00 | 0.00 | 0.00 | 91 | 1015.7 |
| 20260507105543 | 54 | 45 | 0.0 | 0.0 | 0.00 | 0.00 | 0.00 | 91 | 1015.7 |
| 20260507105536 | 54 | 45 | 0.0 | 0.0 | 0.00 | 0.00 | 0.00 | 91 | 1015.8 |
| 20260507105037 | 54 | 45 | 0.0 | 0.0 | 0.00 | 0.00 | 0.00 | 91 | 1015.7 |
| 20260507104036 | 54 | 45 | 0.0 | 0.0 | 0.00 | 0.00 | 0.00 | 91 | 1015.9 |
| 20260507103536 | 54 | 45 | 0.0 | 0.0 | 0.00 | 0.00 | 0.00 | 91 | 1015.8 |
| 20260507103036 | 54 | 45 | 0.0 | 0.0 | 0.00 | 0.00 | 0.00 | 91 | 1015.8 |
| 20260507102542 | 54 | 45 | 0.0 | 0.0 | 0.00 | 0.00 | 0.00 | 91 | 1016.0 |
| 20260507102534 | 54 | 45 | 0.0 | 0.0 | 0.00 | 0.00 | 0.00 | 91 | 1015.8 |
| 20260507102035 | 54 | 45 | 0.0 | 0.0 | 0.00 | 0.00 | 0.00 | 91 | 1016.0 |
| 20260507101035 | 54 | 45 | 0.0 | 0.0 | 0.00 | 0.00 | 0.00 | 91 | 1015.9 |
| 20260507100534 | 54 | 45 | 0.0 | 0.0 | 0.00 | 0.00 | 0.00 | 91 | 1015.9 |
| 20260507100036 | 54 | 45 | 0.0 | 0.0 | 0.00 | 0.00 | 0.00 | 91 | 1015.9 |
| 20260507095535 | 54 | 45 | 0.0 | 1.0 | 0.00 | 0.00 | 0.00 | 91 | 1015.9 |
| 20260507095035 | 54 | 45 | 0.0 | 1.0 | 0.00 | 0.00 | 0.00 | 91 | 1016.0 |
| 20260507094534 | 54 | 17 | 0.0 | 0.0 | 0.00 | 0.00 | 0.00 | 91 | 1016.1 |
| 20260507094035 | 54 | 17 | 0.0 | 0.0 | 0.00 | 0.00 | 0.00 | 90 | 1016.1 |
| 20260507093535 | 55 | 17 | 0.0 | 0.0 | 0.00 | 0.00 | 0.00 | 90 | 1016.3 |
| 20260507093035 | 55 | 17 | 0.0 | 0.0 | 0.00 | 0.00 | 0.00 | 90 | 1016.2 |
| 20260507092536 | 55 | 17 | 0.0 | 0.0 | 0.00 | 0.00 | 0.00 | 91 | 1016.1 |
| 20260507092036 | 55 | 17 | 0.0 | 0.0 | 0.00 | 0.00 | 0.00 | 90 | 1016.2 |
| 20260507091536 | 55 | 17 | 0.0 | 0.0 | 0.00 | 0.00 | 0.00 | 91 | 1016.2 |
| 20260507091035 | 55 | 17 | 0.0 | 0.0 | 0.00 | 0.00 | 0.00 | 90 | 1016.2 |
| 20260507090540 | 55 | 17 | 0.0 | 1.0 | 0.00 | 0.00 | 0.00 | 90 | 1016.4 |
| 20260507090535 | 55 | 17 | 0.0 | 1.0 | 0.00 | 0.00 | 0.00 | 90 | 1016.3 |
| 20260507085535 | 56 | 17 | 0.0 | 0.0 | 0.00 | 0.00 | 0.00 | 90 | 1016.4 |
| 20260507085036 | 56 | 17 | 0.0 | 0.0 | 0.00 | 0.00 | 0.00 | 90 | 1016.5 |
| 20260507084534 | 55 | 17 | 0.0 | 0.0 | 0.00 | 0.00 | 0.00 | 90 | 1016.5 |
| 20260507084034 | 56 | 17 | 0.0 | 0.0 | 0.00 | 0.00 | 0.00 | 90 | 1016.4 |
| 20260507083537 | 56 | 17 | 0.0 | 0.0 | 0.00 | 0.00 | 0.00 | 90 | 1016.6 |
| 20260507083533 | 56 | 17 | 0.0 | 0.0 | 0.00 | 0.00 | 0.00 | 90 | 1016.7 |
| 20260507082532 | 56 | 17 | 0.0 | 0.0 | 0.00 | 0.00 | 0.00 | 90 | 1016.7 |
| 20260507082033 | 56 | 17 | 0.0 | 0.0 | 0.00 | 0.00 | 0.00 | 89 | 1016.8 |
| 20260507081534 | 56 | 17 | 0.0 | 0.0 | 0.00 | 0.00 | 0.00 | 90 | 1016.7 |
| 20260507081033 | 56 | 17 | 0.0 | 0.0 | 0.00 | 0.00 | 0.00 | 89 | 1016.8 |
| 20260507080533 | 56 | 17 | 0.0 | 0.0 | 0.00 | 0.00 | 0.00 | 89 | 1016.7 |
| 20260507080032 | 56 | 17 | 0.0 | 0.0 | 0.00 | 0.00 | 0.00 | 89 | 1016.7 |
| 20260507075534 | 56 | 17 | 0.0 | 0.0 | 0.00 | 0.00 | 0.00 | 89 | 1016.9 |
| 20260507075037 | 57 | 17 | 0.0 | 0.0 | 0.00 | 0.00 | 0.00 | 89 | 1016.9 |
| 20260507075032 | 56 | 17 | 0.0 | 0.0 | 0.00 | 0.00 | 0.00 | 89 | 1016.9 |
| 20260507074033 | 57 | 17 | 0.0 | 0.0 | 0.00 | 0.00 | 0.00 | 89 | 1016.9 |
| 20260507073533 | 57 | 17 | 0.0 | 0.0 | 0.00 | 0.00 | 0.00 | 89 | 1016.9 |
| 20260507073034 | 57 | 17 | 0.0 | 0.0 | 0.00 | 0.00 | 0.00 | 89 | 1016.9 |
| 20260507072532 | 57 | 17 | 0.0 | 0.0 | 0.00 | 0.00 | 0.00 | 89 | 1016.9 |
| 20260507072032 | 57 | 17 | 0.0 | 0.0 | 0.00 | 0.00 | 0.00 | 89 | 1017.0 |
| 20260507071532 | 58 | 17 | 0.0 | 0.0 | 0.00 | 0.00 | 0.00 | 89 | 1017.0 |
| 20260507071031 | 58 | 17 | 0.0 | 0.0 | 0.00 | 0.00 | 0.00 | 88 | 1017.0 |
| 20260507070536 | 58 | 17 | 0.0 | 0.0 | 0.00 | 0.00 | 0.00 | 88 | 1017.0 |
| 20260507070532 | 58 | 17 | 0.0 | 0.0 | 0.00 | 0.00 | 0.00 | 88 | 1016.9 |
| 20260507065530 | 58 | 17 | 0.0 | 0.0 | 0.00 | 0.00 | 0.00 | 88 | 1017.0 |
| 20260507065029 | 58 | 17 | 0.0 | 0.0 | 0.00 | 0.00 | 0.00 | 87 | 1017.1 |
| 20260507064528 | 58 | 17 | 0.0 | 0.0 | 0.00 | 0.00 | 0.00 | 87 | 1017.1 |
| 20260507064028 | 58 | 17 | 0.0 | 0.0 | 0.00 | 0.00 | 0.00 | 87 | 1017.1 |
| 20260507063529 | 58 | 17 | 0.0 | 0.0 | 0.00 | 0.00 | 0.00 | 87 | 1017.2 |
| 20260507063033 | 59 | 17 | 0.0 | 0.0 | 0.00 | 0.00 | 0.00 | 87 | 1017.1 |
| 20260507063029 | 58 | 17 | 0.0 | 0.0 | 0.00 | 0.00 | 0.00 | 87 | 1017.2 |
| 20260507062028 | 59 | 17 | 0.0 | 0.0 | 0.00 | 0.00 | 0.00 | 87 | 1017.1 |
| 20260507061529 | 59 | 17 | 0.0 | 0.0 | 0.00 | 0.00 | 0.00 | 87 | 1017.0 |
| 20260507061028 | 59 | 17 | 0.0 | 0.0 | 0.00 | 0.00 | 0.00 | 87 | 1017.0 |
| 20260507060529 | 59 | 17 | 0.0 | 0.0 | 0.00 | 0.00 | 0.00 | 86 | 1017.2 |
| 20260507060028 | 59 | 17 | 0.0 | 0.0 | 0.00 | 0.00 | 0.00 | 86 | 1017.0 |
| 20260507055529 | 59 | 17 | 0.0 | 0.0 | 0.00 | 0.00 | 0.00 | 86 | 1017.1 |
| 20260507055028 | 59 | 17 | 0.0 | 0.0 | 0.00 | 0.00 | 0.00 | 86 | 1017.1 |
| 20260507054528 | 59 | 17 | 0.0 | 0.0 | 0.00 | 0.00 | 0.00 | 86 | 1017.1 |
| 20260507054034 | 59 | 17 | 0.0 | 0.0 | 0.00 | 0.00 | 0.00 | 85 | 1017.1 |
| 20260507054029 | 59 | 17 | 0.0 | 0.0 | 0.00 | 0.00 | 0.00 | 86 | 1017.1 |
| 20260507053029 | 60 | 17 | 0.0 | 0.0 | 0.00 | 0.00 | 0.00 | 85 | 1017.0 |
| 20260507052529 | 60 | 17 | 0.0 | 0.0 | 0.00 | 0.00 | 0.00 | 85 | 1017.1 |
| 20260507052150 | 60 | 17 | 0.0 | 0.0 | 0.00 | 0.00 | 0.00 | 85 | 1017.1 |
| 20260507052033 | 60 | 17 | 0.0 | 0.0 | 0.00 | 0.00 | 0.00 | 85 | 1017.2 |
| 20260507052028 | 60 | 17 | 0.0 | 0.0 | 0.00 | 0.00 | 0.00 | 85 | 1017.1 |
| 20260507051807 | 60 | 17 | 0.0 | 0.0 | 0.00 | 0.00 | 0.00 | 85 | 1017.1 |
| 20260507050651 | 60 | 17 | 0.0 | 0.0 | 0.00 | 0.00 | 0.00 | 84 | 1017.0 |
| 20260507050527 | 60 | 17 | 0.0 | 0.0 | 0.00 | 0.00 | 0.00 | 85 | 1017.1 |
| 20260507045027 | 60 | 17 | 0.0 | 0.0 | 0.00 | 0.00 | 0.00 | 84 | 1017.1 |
| 20260507044527 | 60 | 17 | 0.0 | 0.0 | 0.00 | 0.00 | 0.00 | 84 | 1017.1 |
| 20260507044026 | 60 | 17 | 0.0 | 0.0 | 0.00 | 0.00 | 0.00 | 84 | 1017.2 |
| 20260507043525 | 61 | 17 | 0.0 | 0.0 | 0.00 | 0.00 | 0.00 | 83 | 1017.1 |
| 20260507043148 | 61 | 17 | 0.0 | 3.0 | 0.00 | 0.00 | 0.00 | 82 | 1016.9 |
| 20260507043026 | 61 | 17 | 0.0 | 0.0 | 0.00 | 0.00 | 0.00 | 83 | 1017.0 |
| 20260507042530 | 61 | 17 | 0.0 | 1.0 | 0.00 | 0.00 | 0.00 | 82 | 1016.9 |
| 20260507042527 | 61 | 17 | 0.0 | 0.0 | 0.00 | 0.00 | 0.00 | 82 | 1016.8 |
| 20260507041644 | 61 | 17 | 1.0 | 3.0 | 0.00 | 0.00 | 0.00 | 81 | 1016.9 |
| 20260507040523 | 61 | 22 | 0.0 | 2.0 | 0.00 | 0.00 | 0.00 | 81 | 1016.8 |
| 20260507040024 | 61 | 22 | 0.0 | 2.0 | 0.00 | 0.00 | 0.00 | 80 | 1016.9 |
| 20260507035523 | 62 | 22 | 0.0 | 2.0 | 0.00 | 0.00 | 0.00 | 79 | 1016.8 |
| 20260507035023 | 62 | 23 | 0.0 | 1.0 | 0.00 | 0.00 | 0.00 | 79 | 1016.8 |
| 20260507034525 | 62 | 23 | 0.0 | 1.0 | 0.00 | 0.00 | 0.00 | 78 | 1016.7 |
| 20260507034030 | 62 | 24 | 0.0 | 1.0 | 0.00 | 0.00 | 0.00 | 77 | 1016.6 |
| 20260507034024 | 62 | 23 | 0.0 | 1.0 | 0.00 | 0.00 | 0.00 | 78 | 1016.7 |
| 20260507033025 | 62 | 24 | 0.0 | 1.0 | 0.00 | 0.00 | 0.00 | 77 | 1016.6 |
| 20260507032524 | 62 | 29 | 0.0 | 1.0 | 0.00 | 0.00 | 0.00 | 76 | 1016.6 |
| 20260507032141 | 63 | 18 | 0.0 | 1.0 | 0.00 | 0.00 | 0.00 | 74 | 1016.5 |
| 20260507032025 | 62 | 25 | 0.0 | 1.0 | 0.00 | 0.00 | 0.00 | 75 | 1016.6 |
| 20260507031526 | 63 | 25 | 0.0 | 1.0 | 0.00 | 0.00 | 0.00 | 75 | 1016.6 |
| 20260507031522 | 63 | 25 | 0.0 | 1.0 | 0.00 | 0.00 | 0.00 | 75 | 1016.7 |
| 20260507030521 | 63 | 25 | 0.0 | 1.0 | 0.00 | 0.00 | 0.00 | 74 | 1016.5 |
| 20260507025526 | 64 | 7 | 0.0 | 4.0 | 0.00 | 0.00 | 0.00 | 73 | 1016.5 |
| 20260507025522 | 64 | 9 | 0.0 | 3.0 | 0.00 | 0.00 | 0.00 | 73 | 1016.4 |
| 20260507024521 | 64 | 34 | 1.0 | 4.0 | 0.00 | 0.00 | 0.00 | 73 | 1016.4 |
| 20260507024021 | 64 | 14 | 1.0 | 4.0 | 0.00 | 0.00 | 0.00 | 72 | 1016.3 |
| 20260507023522 | 64 | 330 | 0.0 | 3.0 | 0.00 | 0.00 | 0.00 | 72 | 1016.3 |
| 20260507023021 | 65 | 349 | 0.0 | 5.0 | 0.00 | 0.00 | 0.00 | 72 | 1016.3 |
| 20260507022525 | 65 | 18 | 0.0 | 3.0 | 0.00 | 0.00 | 0.00 | 71 | 1016.2 |
| 20260507022519 | 65 | 12 | 1.0 | 5.0 | 0.00 | 0.00 | 0.00 | 71 | 1016.3 |
| 20260507022137 | 65 | 6 | 1.0 | 4.0 | 0.00 | 0.00 | 0.00 | 71 | 1016.1 |
| 20260507021019 | 66 | 315 | 1.0 | 4.0 | 0.00 | 0.00 | 0.00 | 71 | 1016.3 |
| 20260507020518 | 66 | 18 | 1.0 | 4.0 | 0.00 | 0.00 | 0.00 | 70 | 1016.1 |
| 20260507020019 | 66 | 8 | 0.0 | 4.0 | 0.00 | 0.00 | 0.00 | 69 | 1016.1 |
| 20260507015521 | 66 | 343 | 0.0 | 4.0 | 0.00 | 0.00 | 0.00 | 69 | 1016.0 |
| 20260507015020 | 67 | 29 | 1.0 | 5.0 | 0.00 | 0.00 | 0.00 | 69 | 1016.0 |
| 20260507014519 | 67 | 24 | 1.0 | 6.0 | 0.00 | 0.00 | 0.00 | 69 | 1016.0 |
| 20260507014021 | 67 | 315 | 1.0 | 6.0 | 0.00 | 0.00 | 0.00 | 69 | 1016.1 |
| 20260507013518 | 68 | 336 | 1.0 | 7.0 | 0.00 | 0.00 | 0.00 | 69 | 1016.0 |
| 20260507013018 | 68 | 338 | 2.0 | 8.0 | 0.00 | 0.00 | 0.00 | 69 | 1016.0 |
| 20260507012522 | 69 | 34 | 2.0 | 8.0 | 0.00 | 0.00 | 0.00 | 68 | 1016.0 |
| 20260507012516 | 69 | 34 | 2.0 | 8.0 | 0.00 | 0.00 | 0.00 | 68 | 1016.0 |
| 20260507011518 | 69 | 25 | 2.0 | 8.0 | 0.00 | 0.00 | 0.00 | 67 | 1016.0 |
| 20260507011017 | 70 | 332 | 2.0 | 8.0 | 0.00 | 0.00 | 0.00 | 66 | 1015.9 |
| 20260507010518 | 70 | 326 | 2.0 | 9.0 | 0.00 | 0.00 | 0.00 | 66 | 1016.0 |
| 20260507010136 | 71 | 334 | 2.0 | 9.0 | 0.00 | 0.00 | 0.00 | 64 | 1015.9 |
| 20260507010022 | 70 | 320 | 2.0 | 7.0 | 0.00 | 0.00 | 0.00 | 65 | 1015.8 |
| 20260507010017 | 70 | 320 | 2.0 | 9.0 | 0.00 | 0.00 | 0.00 | 65 | 1016.0 |
| 20260507004514 | 71 | 335 | 2.0 | 9.0 | 0.00 | 0.00 | 0.00 | 64 | 1015.9 |
| 20260507004018 | 71 | 296 | 2.0 | 10.0 | 0.00 | 0.00 | 0.00 | 63 | 1015.8 |
| 20260507003522 | 72 | 271 | 2.0 | 8.0 | 0.00 | 0.00 | 0.00 | 62 | 1015.6 |
| 20260507003515 | 71 | 321 | 2.0 | 10.0 | 0.00 | 0.00 | 0.00 | 63 | 1015.7 |
| 20260507003015 | 72 | 346 | 2.0 | 8.0 | 0.00 | 0.00 | 0.00 | 62 | 1015.8 |
| 20260507002015 | 72 | 337 | 3.0 | 8.0 | 0.00 | 0.00 | 0.00 | 62 | 1015.5 |
| 20260507001515 | 72 | 324 | 2.0 | 8.0 | 0.00 | 0.00 | 0.00 | 61 | 1015.6 |
| 20260507001015 | 72 | 315 | 3.0 | 8.0 | 0.00 | 0.00 | 0.00 | 61 | 1015.5 |
| 20260507000514 | 72 | 323 | 3.0 | 8.0 | 0.00 | 0.00 | 0.00 | 60 | 1015.5 |
| 20260507000016 | 72 | 340 | 3.0 | 9.0 | 0.00 | 0.00 | 0.00 | 60 | 1015.5 |
| 20260506235514 | 73 | 278 | 3.0 | 9.0 | 0.00 | 0.00 | 0.00 | 60 | 1015.4 |
| 20260506235017 | 73 | 320 | 4.0 | 11.0 | 0.00 | 0.00 | 0.00 | 60 | 1015.4 |
| 20260506235013 | 73 | 336 | 3.0 | 8.0 | 0.00 | 0.00 | 0.00 | 61 | 1015.4 |
| 20260506234018 | 72 | 322 | 3.0 | 10.0 | 0.00 | 0.00 | 0.00 | 60 | 1015.3 |
| 20260506234013 | 73 | 309 | 3.0 | 11.0 | 0.00 | 0.00 | 0.00 | 61 | 1015.4 |
| 20260506233012 | 73 | 7 | 4.0 | 11.0 | 0.00 | 0.00 | 0.00 | 61 | 1015.4 |
| 20260506232514 | 73 | 297 | 3.0 | 12.0 | 0.00 | 0.00 | 0.00 | 62 | 1015.3 |
| 20260506232013 | 73 | 34 | 3.0 | 12.0 | 0.00 | 0.00 | 0.00 | 61 | 1015.4 |
| 20260506231520 | 73 | 328 | 3.0 | 11.0 | 0.00 | 0.00 | 0.00 | 60 | 1015.6 |
| 20260506231513 | 73 | 17 | 4.0 | 10.0 | 0.00 | 0.00 | 0.00 | 61 | 1015.4 |
| 20260506231014 | 73 | 29 | 4.0 | 11.0 | 0.00 | 0.00 | 0.00 | 61 | 1015.5 |
| 20260506230012 | 73 | 322 | 3.0 | 10.0 | 0.00 | 0.00 | 0.00 | 62 | 1015.5 |
| 20260506225512 | 74 | 343 | 2.0 | 10.0 | 0.00 | 0.00 | 0.00 | 62 | 1015.5 |
| 20260506225018 | 74 | 338 | 4.0 | 10.0 | 0.00 | 0.00 | 0.00 | 62 | 1015.5 |
| 20260506225013 | 73 | 332 | 3.0 | 10.0 | 0.00 | 0.00 | 0.00 | 61 | 1015.5 |
| 20260506224014 | 74 | 22 | 3.0 | 10.0 | 0.00 | 0.00 | 0.00 | 61 | 1015.5 |
| 20260506223514 | 74 | 313 | 3.0 | 10.0 | 0.00 | 0.00 | 0.00 | 61 | 1015.5 |
| 20260506223013 | 74 | 300 | 2.0 | 9.0 | 0.00 | 0.00 | 0.00 | 62 | 1015.5 |
| 20260506222518 | 74 | 329 | 4.0 | 13.0 | 0.00 | 0.00 | 0.00 | 62 | 1015.5 |
| 20260506222512 | 74 | 321 | 3.0 | 9.0 | 0.00 | 0.00 | 0.00 | 62 | 1015.6 |
| 20260506221511 | 74 | 320 | 4.0 | 13.0 | 0.00 | 0.00 | 0.00 | 62 | 1015.7 |
| 20260506221016 | 75 | 330 | 4.0 | 11.0 | 0.00 | 0.00 | 0.00 | 60 | 1015.7 |
| 20260506221010 | 75 | 326 | 3.0 | 13.0 | 0.00 | 0.00 | 0.00 | 61 | 1015.5 |
| 20260506220511 | 75 | 317 | 4.0 | 11.0 | 0.00 | 0.00 | 0.00 | 61 | 1015.8 |
| 20260506215509 | 76 | 340 | 3.0 | 12.0 | 0.00 | 0.00 | 0.00 | 59 | 1015.7 |
| 20260506215010 | 75 | 338 | 3.0 | 12.0 | 0.00 | 0.00 | 0.00 | 61 | 1015.7 |
| 20260506214508 | 75 | 50 | 2.0 | 9.0 | 0.00 | 0.00 | 0.00 | 59 | 1015.8 |
| 20260506214008 | 75 | 328 | 3.0 | 10.0 | 0.00 | 0.00 | 0.00 | 59 | 1015.7 |
| 20260506213514 | 74 | 257 | 3.0 | 10.0 | 0.00 | 0.00 | 0.00 | 60 | 1015.7 |
| 20260506213509 | 76 | 69 | 3.0 | 10.0 | 0.00 | 0.00 | 0.00 | 59 | 1015.6 |
| 20260506212508 | 76 | 315 | 4.0 | 10.0 | 0.00 | 0.00 | 0.00 | 58 | 1015.8 |
| 20260506212010 | 76 | 322 | 5.0 | 11.0 | 0.00 | 0.00 | 0.00 | 59 | 1015.8 |
| 20260506211514 | 75 | 338 | 3.0 | 12.0 | 0.00 | 0.00 | 0.00 | 60 | 1015.9 |
| 20260506211508 | 75 | 359 | 4.0 | 12.0 | 0.00 | 0.00 | 0.00 | 60 | 1015.8 |
| 20260506210511 | 76 | 355 | 2.0 | 9.0 | 0.00 | 0.00 | 0.00 | 59 | 1016.0 |
| 20260506210507 | 75 | 296 | 3.0 | 9.0 | 0.00 | 0.00 | 0.00 | 60 | 1015.9 |
| 20260506205506 | 75 | 322 | 3.0 | 9.0 | 0.00 | 0.00 | 0.00 | 61 | 1016.0 |
| 20260506205007 | 75 | 8 | 3.0 | 12.0 | 0.00 | 0.00 | 0.00 | 60 | 1016.1 |
| 20260506204504 | 75 | 20 | 3.0 | 12.0 | 0.00 | 0.00 | 0.00 | 60 | 1016.2 |
| 20260506204004 | 75 | 344 | 3.0 | 10.0 | 0.00 | 0.00 | 0.00 | 61 | 1016.1 |
| 20260506203504 | 75 | 18 | 3.0 | 11.0 | 0.00 | 0.00 | 0.00 | 61 | 1016.1 |
| 20260506203004 | 75 | 39 | 3.0 | 11.0 | 0.00 | 0.00 | 0.00 | 60 | 1016.2 |
| 20260506202504 | 75 | 326 | 4.0 | 12.0 | 0.00 | 0.00 | 0.00 | 61 | 1016.2 |
| 20260506202004 | 74 | 291 | 5.0 | 12.0 | 0.00 | 0.00 | 0.00 | 62 | 1016.2 |
| 20260506201504 | 74 | 264 | 5.0 | 11.0 | 0.00 | 0.00 | 0.00 | 61 | 1016.2 |
| 20260506201004 | 75 | 334 | 4.0 | 11.0 | 0.00 | 0.00 | 0.00 | 60 | 1016.3 |
| 20260506200504 | 75 | 29 | 4.0 | 10.0 | 0.00 | 0.00 | 0.00 | 60 | 1016.1 |
| 20260506200004 | 76 | 29 | 4.0 | 11.0 | 0.00 | 0.00 | 0.00 | 60 | 1016.2 |
| 20260506195509 | 76 | 340 | 3.0 | 10.0 | 0.00 | 0.00 | 0.00 | 59 | 1016.3 |
| 20260506195504 | 75 | 328 | 3.0 | 11.0 | 0.00 | 0.00 | 0.00 | 60 | 1016.3 |
| 20260506194509 | 76 | 307 | 3.0 | 13.0 | 0.00 | 0.00 | 0.00 | 59 | 1016.4 |
| 20260506194503 | 76 | 322 | 4.0 | 13.0 | 0.00 | 0.00 | 0.00 | 58 | 1016.3 |
| 20260506193508 | 76 | 296 | 2.0 | 9.0 | 0.00 | 0.00 | 0.00 | 58 | 1016.5 |
| 20260506193502 | 76 | 29 | 1.0 | 8.0 | 0.00 | 0.00 | 0.00 | 59 | 1016.4 |
| 20260506192504 | 75 | 329 | 1.0 | 5.0 | 0.00 | 0.00 | 0.00 | 58 | 1016.4 |
| 20260506192004 | 75 | 120 | 2.0 | 8.0 | 0.00 | 0.00 | 0.00 | 55 | 1016.5 |
| 20260506191504 | 75 | 61 | 2.0 | 9.0 | 0.00 | 0.00 | 0.00 | 55 | 1016.5 |
| 20260506191004 | 74 | 67 | 2.0 | 9.0 | 0.00 | 0.00 | 0.00 | 55 | 1016.6 |
| 20260506190502 | 74 | 76 | 1.0 | 6.0 | 0.00 | 0.00 | 0.00 | 55 | 1016.6 |
| 20260506190003 | 75 | 237 | 1.0 | 5.0 | 0.00 | 0.00 | 0.00 | 55 | 1016.9 |
| 20260506185502 | 73 | 288 | 1.0 | 6.0 | 0.00 | 0.00 | 0.00 | 57 | 1016.6 |
| 20260506185008 | 74 | 341 | 2.0 | 7.0 | 0.00 | 0.00 | 0.00 | 57 | 1017.1 |
| 20260506185002 | 74 | 29 | 1.0 | 6.0 | 0.00 | 0.00 | 0.00 | 56 | 1016.9 |
| 20260506184000 | 74 | 340 | 2.0 | 7.0 | 0.00 | 0.00 | 0.00 | 56 | 1017.1 |
| 20260506183501 | 74 | 333 | 1.0 | 4.0 | 0.00 | 0.00 | 0.00 | 59 | 1017.2 |
| 20260506183001 | 73 | 304 | 2.0 | 9.0 | 0.00 | 0.00 | 0.00 | 58 | 1017.1 |
| 20260506182459 | 73 | 318 | 2.0 | 9.0 | 0.00 | 0.00 | 0.00 | 59 | 1017.2 |
| 20260506182000 | 71 | 48 | 1.0 | 8.0 | 0.00 | 0.00 | 0.00 | 58 | 1017.3 |
| 20260506181458 | 71 | 320 | 1.0 | 5.0 | 0.00 | 0.00 | 0.00 | 62 | 1017.3 |
| 20260506180959 | 71 | 22 | 1.0 | 9.0 | 0.00 | 0.00 | 0.00 | 61 | 1017.4 |
| 20260506180459 | 71 | 159 | 1.0 | 9.0 | 0.00 | 0.00 | 0.00 | 59 | 1017.4 |
| 20260506175958 | 71 | 345 | 1.0 | 5.0 | 0.00 | 0.00 | 0.00 | 62 | 1017.5 |
| 20260506175459 | 71 | 0 | 1.0 | 5.0 | 0.00 | 0.00 | 0.00 | 59 | 1017.6 |
| 20260506174959 | 71 | 359 | 1.0 | 5.0 | 0.00 | 0.00 | 0.00 | 63 | 1017.7 |
| 20260506174456 | 70 | 19 | 0.0 | 4.0 | 0.00 | 0.00 | 0.00 | 63 | 1017.6 |
| 20260506173957 | 69 | 284 | 0.0 | 4.0 | 0.00 | 0.00 | 0.00 | 65 | 1017.9 |
| 20260506173457 | 69 | 154 | 1.0 | 4.0 | 0.00 | 0.00 | 0.00 | 65 | 1017.8 |
| 20260506173003 | 68 | 24 | 0.0 | 4.0 | 0.00 | 0.00 | 0.00 | 64 | 1017.9 |
| 20260506172957 | 69 | 155 | 1.0 | 7.0 | 0.00 | 0.00 | 0.00 | 64 | 1017.8 |
| 20260506172456 | 69 | 84 | 1.0 | 7.0 | 0.00 | 0.00 | 0.00 | 65 | 1017.9 |